SCP
0 0 0 0 0 0 0 0 0 0 0 0 0 0 0 0 0 0 0 0 0 0 0 0 0 0 0 0 0 0 0 0 0 0 0 0 0 0 0 0 0 0 0 0
0 0 0 0 0 0 0 0 0 0 0 0 0 0 0 0 0 0 0 0 0 0 0 0 0 0 0 0 0 0 0 0 0 0 0 0 0 0 0 0 0 0 0 0
0 0 0 0 0 0 0 0 0 0 0 0 0 0 0 0 0 0 0 0 0 0 0 0 0 0 0 0 0 0 0 0 0 0 0 0 0 0 0 0 0 0 0 0
0 0 0 0 0 0 0 0 0 0 0 0 0 0 0 0 0 0 0 0 0 0 0 0 0 0 0 0 0 0 0 0 0 0 0 0 0 0 0 0 0 0 0 0
0 0 0 0 0 0 0 0 0 0 0 0 0 0 0 0 0 0 0 0 0 0 0 0 0 0 0 0 0 0 0 0 0 0 0 0 0 0 0 0 0 0 0 0
0 0 0 0 0 0 0 0 0 0 0 0 0 0 0 0 0 0 0 0 0 0 0 0 0 0 0 0 0 0 0 0 0 0 0 0 0 0 0 0 0 0 0 0
0 0 0 0 0 0 0 0 0 0 0 0 0 0 0 0 0 0 0 0 0 0 0 0 0 0 0 0 0 0 0 0 0 0 0 0 0 0 0 0 0 0 0 0
0 0 0 0 0 0 0 0 0 0 0 0 0 0 0 0 0 0 0 0 0 0 0 0 0 0 0 0 0 0 0 0 0 0 0 0 0 0 0 0 0 0 0 0
-0 0 0 0 0 0 0 0 0 0 0 0 0 0 0 0 0 0 0 0 0 0 0 0 0 0 0 0 0 0 0 0 0 0 0 0 0 0 0 0 0 0 0 0
0 0 0 0 0 0 0 0 0 0 0 0 0 0 0 0 0 0 0 0 0 0 0 0 0 0 0 0 0 0 0 0 0 0 0 0 0 0 0 0 0 0 0 0
0 0 0 0 0 0 0 0 0 0 0 0 0 0 0 0 0 0 0 0 0 0 0 0 0 0 0 0 1 1 1 0 0 0 0 0 0 0 0 0 0 0 0 0
0 0 0 0 0 0 0 0 0 0 0 0 0 0 0 0 0 0 0 0 0 0 0 0 0 0 0 1 1 1 1 0 0 0 0 0 0 0 0 0 0 0 0 0
0 0 0 0 0 0 0 0 0 0 0 0 0 0 0 0 0 0 0 0 0 0 0 0 0 1 1 1 1 1 1 0 0 0 0 0 0 0 0 0 0 0 0 0
0 0 0 0 0 0 0 0 0 0 0 0 0 0 0 0 0 0 0 0 0 0 0 0 0 0 1 1 1 1 1 1 0 0 0 0 0 0 0 0 0 0 0 0
0 0 0 0 0 0 0 0 0 0 0 0 0 0 0 0 0 0 0 0 0 0 0 0 0 0 0 1 1 1 1 1 1 1 1 1 1 1 1 0 0 0 0 0
0 0 0 0 0 0 0 0 0 0 0 0 0 0 0 0 0 0 0 0 0 0 0 0 0 0 0 0 1 1 1 1 1 1 1 1 1 1 1 1 0 0 0 0
0 0 0 0 0 0 0 0 0 0 0 0 0 0 0 0 0 0 0 0 0 0 0 0 0 0 0 0 1 1 1 1 1 1 1 1 1 1 1 1 0 0 0 0
0 0 0 0 0 0 0 0 0 0 0 0 0 0 0 0 0 0 0 0 0 0 0 0 0 0 0 0 1 1 1 1 1 1 1 1 1 1 1 1 1 0 0 0
0 0 0 0 0 0 0 0 0 0 0 0 0 0 0 0 0 0 0 0 0 0 0 0 0 0 1 1 1 1 1 1 1 1 1 1 1 1 1 1 1 1 0 0
0 0 0 0 0 0 0 0 0 0 0 0 0 0 0 0 0 0 0 0 0 0 0 0 0 0 0 1 1 0 0 0 0 0 1 1 1 1 1 1 1 1 0 0
0 0 0 0 0 0 0 0 0 0 0 0 0 0 0 0 0 0 0 0 0 0 0 0 0 0 0 0 0 0 0 0 0 0 0 0 0 1 1 1 0 0 0 0
0 0 0 0 0 0 0 0 0 0 0 0 0 0 0 0 0 0 0 0 0 0 0 0 0 0 0 0 0 0 0 0 0 0 0 0 0 0 0 0 0 0 0 0
0 0 0 0 0 0 0 0 0 0 0 0 0 0 0 0 0 0 0 1 0 0 0 0 0 0 0 0 0 0 0 0 0 0 0 0 0 0 0 0 0 0 0 0
0 0 0 0 0 0 0 0 0 0 0 0 0 0 0 0 0 0 0 0 0 0 0 0 0 0 0 0 0 0 0 0 0 0 0 0 0 0 0 0 0 0 0 0
0 0 0 0 0 0 0 0 0 0 0 0 0 0 0 0 0 0 0 0 0 0 0 0 0 0 0 0 0 0 0 0 0 0 0 0 0 0 0 0 0 0 0 0
0 0 0 0 0 0 0 0 0 0 0 0 0 0 0 0 0 0 0 0 0 0 0 0 0 0 0 0 0 0 0 0 0 0 0 0 0 0 0 0 0 0 0 0
Wind_Speed
2 5 3 6 7 5 5 4 3 4 3 4 5 5 5 7 7 8 8 9 10 11 8 8 9 9 8 7 7 7 6 5 5 3 3 2 2 2 1 2 2 3 3 3
4 2 6 5 4 4 4 3 3 3 1 4 3 3 3 8 11 11 11 11 11 8 6 8 8 9 9 9 9 8 7 6 6 4 3 2 2 2 2 1 2 3 3 3
6 5 3 4 4 4 3 5 5 3 1 2 2 3 3 4 6 6 8 9 9 11 11 10 10 10 10 10 10 9 9 8 7 5 3 3 2 1 1 1 2 2 3 3
4 4 2 3 3 5 4 5 5 4 3 1 2 3 6 4 5 8 9 9 10 10 10 10 10 11 11 11 10 8 8 7 6 6 6 6 4 4 3 2 2 1 2 3
4 3 4 4 5 6 5 2 4 3 3 1 1 2 8 1 5 10 11 11 11 11 11 12 12 12 11 10 9 8 7 7 7 7 7 6 4 3 2 2 2 2 2 2
3 2 3 4 2 4 4 6 7 6 5 1 4 4 7 4 7 7 9 10 11 10 11 11 10 8 8 8 8 8 8 7 7 8 7 7 7 5 4 3 3 2 1 2
2 2 1 2 3 2 5 7 4 4 3 6 2 3 9 8 6 7 7 10 10 10 10 10 10 10 10 10 9 9 9 8 7 7 7 7 7 7 6 5 4 3 2 2
3 4 3 3 5 5 4 9 8 6 6 5 1 6 9 6 4 4 4 4 6 8 9 11 11 11 11 11 10 9 9 8 7 7 7 6 6 5 4 5 4 4 3 3
6 6 4 3 3 9 6 3 6 7 3 1 5 6 9 4 4 2 1 1 4 6 8 9 9 9 10 10 10 10 9 7 8 8 6 6 6 6 5 4 4 3 3 3
7 3 4 2 4 3 5 8 6 6 6 4 4 4 5 5 5 4 2 2 2 3 5 6 7 8 9 8 8 8 8 8 7 7 6 6 5 5 5 5 5 4 4 3
5 5 3 2 3 4 3 4 5 4 5 7 4 8 6 6 5 5 4 2 2 3 5 5 5 6 7 6 7 7 7 6 6 6 6 5 5 5 5 5 5 4 4 4
4 6 2 4 3 2 4 6 8 5 4 4 4 8 4 4 3 2 2 1 0 1 3 4 4 5 6 7 6 7 7 7 7 6 6 5 5 5 4 4 4 4 4 4
4 6 3 4 4 2 2 2 4 5 5 5 5 8 2 1 1 1 0 1 1 3 3 3 4 5 6 6 6 6 6 7 6 6 6 5 5 5 5 5 4 4 4 4
5 5 7 9 8 4 2 2 4 5 4 5 7 7 5 3 2 1 0 1 2 2 3 3 3 3 4 4 5 6 6 6 6 6 6 5 5 5 5 4 4 4 4 4
4 3 3 4 4 3 3 4 5 6 8 8 8 7 8 6 4 2 1 2 3 2 2 2 2 2 3 4 4 5 5 5 5 5 6 6 4 4 4 4 4 4 4 4
3 3 2 1 2 3 3 4 6 6 5 6 4 7 5 3 2 2 2 4 3 2 3 3 3 3 3 4 4 4 4 4 5 6 6 5 4 4 4 4 4 4 4 3
1 4 3 3 2 1 4 6 7 5 5 7 8 8 3 3 5 6 5 5 5 4 3 3 3 4 4 3 4 4 4 4 5 5 5 4 5 4 4 3 3 4 4 3
5 4 3 2 2 6 8 2 3 4 3 4 4 4 5 5 2 2 3 5 5 4 3 2 2 3 3 2 2 3 3 4 5 5 4 4 4 4 4 4 4 4 3 4
6 7 4 4 3 5 5 2 3 4 4 3 4 4 3 4 3 1 1 3 4 4 4 3 3 3 3 3 4 4 4 3 4 3 3 3 3 3 4 4 4 4 3 4
4 4 5 4 4 7 7 3 2 3 4 3 4 6 6 5 2 4 2 3 3 3 3 3 3 3 4 4 4 5 4 3 3 3 2 2 3 3 3 4 3 2 2 3
2 2 3 4 4 7 5 2 2 4 8 3 5 6 7 5 5 4 3 3 4 4 4 3 3 3 3 3 5 4 3 3 2 1 2 1 2 2 2 2 2 2 2 1
4 4 4 4 4 8 3 2 5 6 2 1 3 3 4 4 3 3 4 4 4 4 4 3 3 2 2 3 4 3 2 1 1 1 1 1 1 1 1 1 2 2 2 2
4 5 5 7 7 5 3 4 4 2 2 2 2 3 4 4 4 3 3 4 3 3 3 2 4 3 2 2 3 3 1 1 2 1 1 1 1 1 1 1 2 1 1 2
2 1 2 2 5 4 3 2 2 1 2 2 3 4 4 4 5 5 4 3 3 2 3 2 3 3 1 1 1 1 1 2 2 2 1 0 0 0 1 1 1 2 2 2
4 2 1 4 4 2 3 2 2 1 2 3 2 3 5 6 5 5 4 4 3 2 2 2 3 3 2 1 1 1 1 2 2 1 1 0 0 1 1 0 1 1 2 2
5 5 5 6 6 4 5 3 2 2 2 3 4 3 3 5 5 5 4 4 4 3 3 3 3 2 1 1 1 1 1 2 2 1 0 0 0 0 0 0 1 2 1 2
Wind_Direction
74 90 170 199 188 182 166 166 213 236 212 169 213 228 205 185 188 198 198 199 203 209 204 189 186 181 175 175 176 181 179 172 158 154 162 163 182 181 180 189 194 190 185 176
54 238 219 186 170 156 158 175 233 276 178 168 215 254 221 197 205 204 203 203 205 201 190 188 185 184 183 183 184 183 184 177 175 176 166 159 154 168 179 186 187 192 189 183
175 226 186 153 148 154 180 189 203 200 41 52 95 311 247 227 216 217 213 208 201 197 194 191 190 192 187 188 189 191 188 182 179 167 139 118 102 91 134 185 204 203 190 186
205 237 171 156 178 159 225 217 181 156 126 267 146 260 277 234 228 225 220 209 205 200 195 194 192 193 193 194 189 188 185 181 177 165 162 163 171 184 199 190 194 198 190 188
221 193 167 191 207 169 204 156 129 129 135 79 6 188 283 265 245 242 228 218 211 200 193 195 196 196 194 188 185 186 181 181 178 175 176 174 180 186 173 158 166 184 197 192
233 225 181 198 195 159 134 74 60 54 73 274 231 177 272 237 227 247 230 219 211 200 196 198 196 187 186 183 182 181 180 187 182 180 181 182 182 177 168 177 186 193 197 195
312 304 262 146 92 66 98 95 47 7 10 248 230 186 246 249 235 231 230 223 208 197 192 191 189 187 187 184 184 182 182 189 184 183 187 188 186 181 185 188 193 191 193 206
176 271 238 183 168 171 171 142 157 187 211 260 253 226 249 264 270 251 235 215 197 192 193 194 194 191 190 186 182 181 184 188 183 185 191 188 184 184 192 190 187 191 197 205
171 239 274 223 185 145 142 171 164 138 158 211 265 277 296 299 316 319 298 188 196 196 196 198 192 186 185 182 181 182 182 184 186 186 181 180 183 185 190 187 188 194 196 193
155 209 276 281 82 45 138 145 107 125 150 221 269 258 254 281 284 294 272 236 219 195 190 193 190 183 178 178 176 178 181 184 181 178 181 186 187 191 190 184 190 194 198 193
137 160 293 26 156 175 104 102 111 122 154 164 227 257 227 229 239 249 253 245 214 194 186 190 189 175 169 165 168 174 177 173 172 176 177 177 181 190 190 191 197 197 199 197
139 127 215 260 263 200 155 160 146 154 210 182 186 256 273 233 238 241 278 329 21 132 148 167 165 153 160 165 167 169 171 172 174 174 175 179 180 183 191 198 199 192 195 200
133 117 89 343 341 13 107 147 144 127 123 158 180 256 303 343 332 352 48 21 58 88 102 126 140 151 162 165 167 169 172 177 170 164 170 180 188 191 198 198 193 191 191 196
116 125 166 195 214 199 190 188 154 133 153 194 217 240 275 280 279 307 59 144 115 110 109 111 126 147 157 163 166 170 174 173 169 164 172 184 192 193 193 191 190 193 191 193
103 148 197 219 217 188 203 217 194 190 190 191 220 219 240 232 219 216 171 137 116 102 101 114 129 140 145 149 158 166 172 172 167 165 177 192 189 182 180 183 186 190 194 203
75 139 146 257 233 200 228 239 216 213 204 205 211 244 242 205 173 184 174 155 151 153 155 153 136 125 134 144 150 158 168 169 158 169 181 179 172 175 184 193 188 185 196 202
95 130 136 225 259 27 256 231 215 211 206 184 208 225 182 184 195 200 191 173 176 178 175 159 143 146 147 152 148 156 166 159 158 169 171 174 177 183 188 193 195 197 206 205
152 129 140 159 134 220 240 235 191 190 235 214 204 193 189 198 192 197 184 176 176 170 158 144 133 135 139 148 137 129 134 145 154 166 169 170 177 187 187 186 196 205 208 210
163 147 140 142 182 259 283 246 172 180 251 222 184 167 145 122 78 0 203 174 175 165 156 155 152 145 144 140 136 127 126 131 138 153 165 173 177 189 195 201 208 211 211 223
99 117 133 148 170 222 239 239 202 144 258 226 175 169 162 132 147 232 199 158 143 130 128 127 119 116 123 127 128 127 136 139 152 168 171 174 178 189 205 210 213 209 208 231
82 89 152 177 206 248 249 264 102 176 236 215 185 180 171 184 200 183 148 149 144 130 124 119 116 119 128 134 127 126 137 157 178 165 142 161 187 205 216 202 201 201 202 219
173 165 184 167 193 244 260 135 181 220 249 174 170 178 169 161 134 132 139 142 136 125 119 123 122 112 106 113 120 125 151 182 144 144 155 165 189 223 229 203 205 200 191 203
193 192 184 190 214 245 246 222 233 202 202 221 175 169 149 145 149 142 142 142 136 132 130 134 132 113 83 96 129 146 185 156 140 141 166 188 192 213 259 214 204 211 204 205
258 165 160 243 263 272 276 274 280 209 195 189 166 157 147 150 156 146 141 138 132 131 134 131 124 119 119 122 128 168 174 155 142 156 167 168 184 258 313 264 209 205 211 221
232 190 199 254 264 296 298 268 223 122 117 128 134 146 153 145 153 152 146 145 145 142 139 132 132 140 160 154 108 105 122 131 141 154 152 144 151 188 231 280 259 239 240 230
220 202 202 233 231 216 240 239 209 156 170 171 150 138 136 141 146 142 144 147 146 144 134 123 117 127 139 124 103 86 122 136 142 146 149 165 145 181 218 32 360 9 337 321